Regional Weather Roundup
Issued by NWS

Home | Current Version | Previous Version | Graphics & Text | Print | Product List | Glossary On
Versions: 1 2 3 4 5 6 7 8 9 10 11 12 13 14 15 16 17 18 19 20 21 22 23 24 25 26 27 28 29 30 31 32 33 34 35 36 37 38 39 40 41 42 43 44 45 46 47 48 49 50
774
ASUS43 KOAX 231710
RWRNE

WEATHER ROUNDUP FOR NEBRASKA
NATIONAL WEATHER SERVICE OMAHA NE
1200 PM CDT SAT SEP 23 2017

NOTES: SATELLITE DATA IS BEING USED TO AUGMENT CLOUD COVER ABOVE
       12000 FEET.
       "FAIR" INDICATES FEW OR NO CLOUDS BELOW 12,000 FEET WITH NO
       SIGNIFICANT WEATHER AND/OR OBSTRUCTIONS TO VISIBILITY.


NEZ001>004-019>022-054>056-231800-
NEBRASKA PANHANDLE

CITY           SKY/WX    TMP DP  RH WIND       PRES   REMARKS
SCOTTSBLUFF    CLOUDY    46  42  86 N9        30.03R
ALLIANCE       CLOUDY    45  43  93 N14       30.01R FOG
CHADRON        CLOUDY    45  43  93 NE10      30.05R FOG
GORDON         LGT RAIN  45  44  95 NE9       30.03R
KIMBALL        CLOUDY    43  43 100 N7        30.02S FOG
SIDNEY         CLOUDY    46  45  96 N10       30.01R FOG
$$

NEZ057>060-069>072-079>082-231800-
SOUTHWEST NEBRASKA

CITY           SKY/WX    TMP DP  RH WIND       PRES   REMARKS
NORTH PLATTE   CLOUDY    53  52  96 NE9       29.96R FOG
IMPERIAL       CLOUDY    53  48  83 NE13      29.95S
LEXINGTON      CLOUDY    71  60  70 NE8       29.92S
MCCOOK         CLOUDY    78  64  61 S12       29.89S
OGALLALA       CLOUDY    51  50  95 NE9       29.96S FOG
$$

NEZ005>010-023>029-035>040-094-231800-
NORTH CENTRAL NEBRASKA

CITY           SKY/WX    TMP DP  RH WIND       PRES   REMARKS
VALENTINE      CLOUDY    50  49  96 N9        30.02R FOG
AINSWORTH      CLOUDY    50  50 100 N9        30.00S FOG
BROKEN BOW     CLOUDY    55  52  89 N10       29.96R
O`NEILL        CLOUDY    54  54 100 N7        29.99S FOG
ORD            CLOUDY    68  56  65 N6        29.93S
THEDFORD       DRIZZLE   50  49  97 N12       29.99F
$$

NEZ041-046>049-061>064-073>077-083>087-231800-
SOUTH CENTRAL NEBRASKA

CITY           SKY/WX    TMP DP  RH WIND       PRES   REMARKS
GRAND ISLAND   MOSUNNY   83  67  58 S13       29.92S
AURORA         MOSUNNY   82  65  56 S13G18    29.92S
HASTINGS       MOSUNNY   84  64  50 S14       29.92F
HEBRON         MOSUNNY   88  65  47 S16G22    29.94S HX  90
HOLDREGE       MOSUNNY   82  63  52 S15       29.92R
KEARNEY        MOSUNNY   84  67  56 S14G22    29.92R
YORK           MOSUNNY   82  66  57 S16       29.93F
$$

NEZ011>018-030>034-042>045-231800-
NORTHEAST NEBRASKA

CITY           SKY/WX    TMP DP  RH WIND       PRES   REMARKS
NORFOLK        MOSUNNY   81  67  62 S9        29.91F
ALBION         SUNNY     78  69  73 E3        29.92F
BLAIR          MOSUNNY   83  68  59 S10       29.96F
COLUMBUS       MOSUNNY   83  68  60 S12G18    29.93F
FREMONT        MOSUNNY   84  67  55 S10       29.95F
TEKAMAH        CLOUDY    85  68  56 S10       29.94F
WAYNE          MOSUNNY   77  72  82 S9        29.93F
$$

NEZ050>053-065>068-078-088>093-231800-
SOUTHEAST NEBRASKA

CITY           SKY/WX    TMP DP  RH WIND       PRES   REMARKS
LINCOLN        SUNNY     88  67  49 SE16G23   29.94S HX  91
OMAHA EPPLEY   PTSUNNY   85  67  54 S20       29.96F
BEATRICE       SUNNY     87  67  51 S17G25    29.95F HX  90
FALLS CITY     SUNNY     86  67  52 SW10      29.99F
NEBRASKA CITY  SUNNY     85  69  57 S14       29.99S
PLATTSMOUTH    SUNNY     85  68  55 S13G18    29.98S
$$

NEZ044-045-051>053-067-231800-
OMAHA AREA

CITY           SKY/WX    TMP DP  RH WIND       PRES   REMARKS
OMAHA EPPLEY   PTSUNNY   85  67  54 S20       29.96F
BLAIR          MOSUNNY   83  68  59 S10       29.96F
FREMONT        MOSUNNY   84  67  55 S10       29.95F
MILLARD        SUNNY     87  69  55 S8G18     29.96S HX  91
OFFUTT AFB     SUNNY     85  68  55 SE17      29.96F
PLATTSMOUTH    SUNNY     85  68  55 S13G18    29.98S
WAHOO          FAIR      88  65  47 S15       29.95S HX  90
$$




USA.gov is the U.S. government's official web portal to all federal, state and local government web resources and services.